CW9461 Weather Reports


Display with metric or nautical units.
time (UTC)temp
F
wind
direction
speed
MPH
gust
MPH
rain 1hr
in
rain 24hr
in
rain mn
in
humidity
%
barometer
mb
20260505215105 63 157 2.0 3.0 0.00 0.20 0.11 70 1006.1
20260505214604 63 202 0.0 5.0 0.00 0.20 0.11 70 1006.1
20260505213604 63 160 2.0 5.0 0.00 0.20 0.11 69 1006.1
20260505213105 63 225 1.0 6.0 0.00 0.20 0.11 69 1006.1
20260505212605 63 242 2.0 3.0 0.00 0.20 0.11 69 1006.1
20260505212106 63 228 2.0 6.0 0.00 0.20 0.11 69 1006.1
20260505211605 63 281 2.0 5.0 0.00 0.20 0.11 69 1006.1
20260505211105 64 300 2.0 5.0 0.00 0.20 0.11 69 1006.1
20260505210604 64 292 2.0 5.0 0.00 0.20 0.11 69 1006.1
20260505210106 64 242 2.0 5.0 0.00 0.20 0.11 69 1006.1
20260505205606 64 283 2.0 5.0 0.00 0.20 0.11 69 1006.1
20260505205105 64 257 1.0 3.0 0.00 0.20 0.11 69 1006.1
20260505204604 63 224 2.0 5.0 0.00 0.20 0.11 69 1006.2
20260505204105 63 164 1.0 7.0 0.00 0.20 0.11 70 1006.1
20260505203605 63 239 3.0 6.0 0.00 0.20 0.11 70 1006.3
20260505203105 63 337 1.0 6.0 0.00 0.20 0.11 71 1006.4
20260505202104 63 268 3.0 6.0 0.00 0.20 0.11 71 1006.4
20260505201604 62 292 2.0 5.0 0.00 0.20 0.11 72 1006.2
20260505201105 62 252 4.0 7.0 0.00 0.20 0.11 72 1006.4
20260505200606 62 253 2.0 6.0 0.00 0.20 0.11 73 1006.4
20260505200105 62 279 3.0 6.0 0.00 0.20 0.11 73 1006.4
20260505195605 62 276 2.0 6.0 0.00 0.20 0.11 74 1006.4
20260505195105 62 264 3.0 8.0 0.00 0.20 0.11 74 1006.8
20260505194606 61 259 3.0 7.0 0.00 0.20 0.11 74 1006.4
20260505194106 61 253 3.0 10.0 0.00 0.20 0.11 75 1006.7
20260505193604 61 235 3.0 8.0 0.00 0.20 0.11 75 1006.4
20260505193105 61 243 4.0 9.0 0.00 0.20 0.11 75 1006.8
20260505192105 61 268 3.0 5.0 0.00 0.20 0.11 75 1006.8
20260505191605 61 241 2.0 6.0 0.00 0.20 0.11 76 1006.7
20260505191104 61 288 3.0 7.0 0.00 0.20 0.11 77 1006.6
20260505190604 60 267 2.0 7.0 0.00 0.20 0.11 78 1006.8
20260505190105 60 240 3.0 6.0 0.00 0.20 0.11 78 1006.4
20260505185605 60 288 2.0 7.0 0.00 0.20 0.11 77 1006.4
20260505184606 60 240 2.0 6.0 0.00 0.20 0.11 79 1006.6
20260505184105 59 278 3.0 8.0 0.00 0.20 0.11 80 1006.8
20260505183604 59 279 2.0 6.0 0.00 0.20 0.11 81 1006.4
20260505183105 59 259 2.0 7.0 0.00 0.20 0.11 81 1006.6
20260505182605 59 283 3.0 6.0 0.00 0.20 0.11 82 1006.8
20260505181605 58 249 3.0 7.0 0.00 0.20 0.11 83 1006.6
20260505180605 58 247 3.0 7.0 0.00 0.20 0.11 85 1006.8
20260505180105 58 255 4.0 8.0 0.00 0.20 0.11 85 1006.4
20260505175605 58 274 5.0 9.0 0.00 0.20 0.11 86 1006.6
20260505175104 57 263 3.0 6.0 0.00 0.20 0.11 86 1006.4
20260505174604 57 275 4.0 9.0 0.00 0.20 0.11 87 1006.4
20260505174105 57 283 3.0 8.0 0.00 0.20 0.11 88 1006.4
20260505173605 57 274 2.0 9.0 0.00 0.20 0.11 88 1006.4
20260505173106 57 231 2.0 5.0 0.00 0.20 0.11 89 1006.1
20260505172605 56 256 3.0 7.0 0.00 0.20 0.11 90 1006.1
20260505172104 56 255 2.0 6.0 0.00 0.20 0.11 91 1006.1
20260505171604 56 245 2.0 8.0 0.00 0.20 0.11 92 1006.1
20260505171106 55 234 1.0 6.0 0.00 0.20 0.11 93 1006.1
20260505170606 55 239 1.0 6.0 0.00 0.20 0.11 93 1006.2
20260505170104 56 219 1.0 5.0 0.00 0.20 0.11 94 1006.1
20260505165604 55 168 0.0 0.0 0.00 0.20 0.11 94 1006.3
20260505165104 55 180 0.0 0.0 0.00 0.20 0.11 94 1006.4
20260505164605 55 247 0.0 2.0 0.00 0.20 0.11 94 1006.4
20260505164105 55 292 0.0 1.0 0.00 0.20 0.11 95 1006.3
20260505163604 55 241 0.0 1.0 0.00 0.20 0.11 95 1006.2
20260505163105 55 288 0.0 1.0 0.00 0.20 0.11 95 1006.1
20260505162605 55 180 0.0 1.0 0.00 0.20 0.11 95 1006.1
20260505162105 55 221 1.0 6.0 0.00 0.20 0.11 95 1006.1
20260505161606 55 245 2.0 3.0 0.00 0.20 0.11 95 1006.2
20260505161104 55 270 0.0 3.0 0.00 0.20 0.11 95 1006.1
20260505160605 55 270 0.0 2.0 0.00 0.20 0.11 95 1006.1
20260505160105 55 247 1.0 2.0 0.00 0.20 0.11 95 1006.1
20260505153105 54 292 0.0 0.0 0.00 0.20 0.11 94 1005.9
20260505152605 54 305 1.0 2.0 0.00 0.20 0.11 94 1005.9
20260505151605 54 279 1.0 3.0 0.00 0.20 0.11 94 1005.8
20260505151104 54 280 2.0 6.0 0.00 0.20 0.11 95 1005.8
20260505150604 54 286 1.0 6.0 0.00 0.20 0.11 95 1005.6
20260505150105 54 293 1.0 7.0 0.00 0.20 0.11 95 1005.8
20260505140604 53 112 1.0 2.0 0.00 0.20 0.11 95 1005.3
20260505140104 53 123 0.0 2.0 0.00 0.20 0.11 95 1005.1
20260505124605 52 112 1.0 3.0 0.00 0.20 0.11 96 1005.1
20260505124105 52 135 2.0 3.0 0.00 0.20 0.11 96 1005.1
20260505122604 52 148 1.0 5.0 0.00 0.20 0.11 96 1004.7
20260505122105 52 135 1.0 3.0 0.00 0.20 0.11 96 1004.9
20260505121604 52 135 1.0 2.0 0.00 0.20 0.11 96 1004.9
20260505121104 52 135 0.0 2.0 0.00 0.20 0.11 96 1005.1
20260505120604 52 112 0.0 1.0 0.00 0.20 0.11 96 1005.1
20260505120104 52 112 0.0 3.0 0.00 0.20 0.11 96 1005.1
20260505115604 52 135 1.0 3.0 0.00 0.20 0.11 96 1005.1
20260505114605 52 135 0.0 3.0 0.00 0.20 0.11 96 1005.1
20260505114105 52 135 0.0 2.0 0.00 0.20 0.11 95 1005.1
20260505113603 52 93 1.0 3.0 0.00 0.20 0.11 95 1005.1
20260505113104 52 112 1.0 2.0 0.00 0.20 0.11 95 1004.9
20260505112604 52 112 0.0 2.0 0.00 0.20 0.11 95 1004.9
20260505112104 52 91 1.0 3.0 0.00 0.20 0.11 96 1005.1
20260505111604 52 135 1.0 3.0 0.00 0.20 0.11 96 1005.1
20260505111104 52 134 2.0 5.0 0.00 0.20 0.11 96 1004.7
20260505110604 52 143 2.0 3.0 0.00 0.20 0.11 95 1004.9
20260505110104 52 135 2.0 3.0 0.00 0.20 0.11 95 1005.1
20260505102105 52 155 1.0 3.0 0.01 0.20 0.11 95 1005.1
20260505101605 52 135 0.0 1.0 0.01 0.20 0.11 95 1005.4
20260505100604 52 130 0.0 1.0 0.01 0.20 0.11 95 1005.4
20260505100104 52 135 0.0 2.0 0.01 0.20 0.11 95 1005.4
20260505095604 52 135 0.0 2.0 0.01 0.20 0.11 95 1005.1
20260505095104 52 135 1.0 3.0 0.01 0.20 0.11 95 1005.1
20260505094604 52 123 1.0 2.0 0.01 0.20 0.11 95 1005.1
20260505093604 52 135 0.0 2.0 0.02 0.20 0.11 95 1005.4
20260505093104 52 123 0.0 2.0 0.03 0.20 0.11 95 1005.4
20260505092604 52 112 1.0 2.0 0.02 0.19 0.10 95 1005.4
20260505092104 52 112 1.0 3.0 0.02 0.19 0.10 95 1005.8
20260505091604 52 185 1.0 2.0 0.02 0.19 0.10 94 1005.8
20260505091104 52 135 0.0 3.0 0.02 0.19 0.10 94 1005.8
20260505090604 52 143 1.0 2.0 0.02 0.19 0.10 94 1005.8
20260505090104 52 106 1.0 2.0 0.02 0.19 0.10 94 1005.4
20260505085604 52 135 1.0 2.0 0.03 0.19 0.10 94 1005.4
20260505085104 52 135 0.0 5.0 0.04 0.19 0.10 94 1005.4
20260505084604 52 135 0.0 0.0 0.05 0.19 0.10 94 1005.8
20260505083604 52 135 0.0 0.0 0.05 0.18 0.09 94 1006.1
20260505083105 52 135 0.0 2.0 0.04 0.17 0.08 94 1006.1
20260505082105 52 135 0.0 1.0 0.05 0.17 0.08 94 1006.1
20260505081604 52 91 0.0 1.0 0.06 0.17 0.08 93 1006.1
20260505081103 52 112 0.0 2.0 0.07 0.17 0.08 93 1005.8
20260505080604 52 112 0.0 0.0 0.07 0.17 0.08 93 1005.8
20260505080104 52 112 0.0 1.0 0.07 0.17 0.08 93 1005.8
20260505075604 52 157 0.0 0.0 0.07 0.16 0.07 93 1005.8
20260505075104 52 157 0.0 0.0 0.06 0.15 0.06 93 1006.1
20260505074605 52 90 0.0 0.0 0.05 0.14 0.05 93 1006.1
20260505074104 52 157 0.0 1.0 0.05 0.14 0.05 93 1006.1
20260505073604 52 112 0.0 2.0 0.04 0.13 0.04 93 1006.1
20260505073104 52 243 0.0 1.0 0.05 0.13 0.04 93 1006.1
20260505072604 52 67 0.0 0.0 0.05 0.13 0.04 93 1006.1
20260505072104 52 67 0.0 0.0 0.04 0.12 0.03 93 1006.4
20260505071604 52 67 0.0 1.0 0.03 0.11 0.02 93 1006.1
20260505071105 52 112 0.0 1.0 0.02 0.10 0.01 93 1006.1
20260505070604 52 112 0.0 2.0 0.02 0.10 0.01 93 1006.1
20260505070103 52 225 0.0 0.0 0.02 0.10 0.10 93 1006.1
20260505065605 52 225 0.0 0.0 0.02 0.10 0.10 93 1006.1
20260505065104 52 259 0.0 3.0 0.02 0.09 0.09 93 1006.4
20260505063603 52 246 2.0 5.0 0.02 0.09 0.09 93 1006.3
20260505062604 52 261 3.0 7.0 0.03 0.08 0.08 93 1006.1
20260505062105 52 247 1.0 3.0 0.03 0.08 0.08 93 1006.1
20260505061605 52 270 0.0 0.0 0.03 0.08 0.08 93 1006.1
20260505061105 52 270 0.0 1.0 0.03 0.08 0.08 93 1005.9
20260505060605 53 225 0.0 0.0 0.03 0.08 0.08 93 1005.8
20260505060106 53 260 0.0 2.0 0.04 0.08 0.08 93 1005.8
20260505055606 53 279 0.0 0.0 0.04 0.08 0.08 92 1005.9
20260505055105 53 270 0.0 1.0 0.03 0.07 0.07 92 1005.8
20260505054606 53 247 1.0 2.0 0.04 0.07 0.07 92 1005.8
20260505054106 53 247 0.0 2.0 0.04 0.07 0.07 92 1006.0
20260505053606 53 267 0.0 2.0 0.04 0.07 0.07 92 1005.9
20260505053105 53 247 0.0 0.0 0.04 0.06 0.06 92 1006.1
20260505052605 53 247 0.0 0.0 0.04 0.05 0.05 92 1006.1
20260505052106 53 202 0.0 0.0 0.04 0.05 0.05 91 1006.1
20260505051605 53 135 0.0 2.0 0.04 0.05 0.05 91 1005.9
20260505051105 53 157 0.0 0.0 0.05 0.05 0.05 91 1006.1
20260505050606 53 164 0.0 1.0 0.05 0.05 0.05 91 1006.1
20260505050106 53 251 0.0 1.0 0.04 0.04 0.04 91 1006.1
20260505041605 54 303 2.0 5.0 0.01 0.01 0.01 88 1006.6
20260505041105 54 288 2.0 3.0 0.00 0.00 0.00 88 1006.6
20260505040605 55 304 2.0 3.0 0.00 0.00 0.00 87 1006.6
20260505040105 55 295 2.0 5.0 0.00 0.00 0.00 87 1006.6
20260505035606 55 282 3.0 6.0 0.00 0.00 0.00 87 1006.4
20260505035105 55 266 3.0 5.0 0.00 0.00 0.00 87 1006.4
20260505034606 55 313 2.0 3.0 0.00 0.00 0.00 86 1006.3
20260505034106 55 295 2.0 5.0 0.00 0.00 0.00 86 1006.1
20260505033606 55 301 1.0 3.0 0.00 0.00 0.00 86 1006.0
20260505033106 55 245 2.0 5.0 0.00 0.00 0.00 85 1005.8
20260505032105 55 255 5.0 9.0 0.00 0.00 0.00 84 1005.6
20260505031606 55 255 4.0 12.0 0.00 0.00 0.00 84 1005.4
20260505031107 55 259 3.0 7.0 0.00 0.00 0.00 83 1005.4
20260505030105 55 242 3.0 8.0 0.00 0.00 0.00 82 1005.4
20260505025605 55 274 3.0 8.0 0.00 0.00 0.00 82 1005.4
20260505025105 55 232 5.0 8.0 0.00 0.00 0.00 82 1005.4
20260505024605 56 245 4.0 8.0 0.00 0.00 0.00 82 1005.4
20260505024106 56 290 3.0 7.0 0.00 0.00 0.00 82 1005.4
20260505023606 56 277 3.0 5.0 0.00 0.00 0.00 82 1005.4
20260505023105 56 240 3.0 6.0 0.00 0.00 0.00 82 1005.4
20260505021605 57 261 3.0 5.0 0.00 0.00 0.00 80 1005.4
20260505021105 57 268 3.0 6.0 0.00 0.00 0.00 79 1005.4
20260505020605 57 266 3.0 8.0 0.00 0.00 0.00 78 1005.4
20260505015105 57 268 2.0 7.0 0.00 0.00 0.00 77 1005.4
20260505014105 58 262 6.0 12.0 0.00 0.00 0.00 76 1005.4
20260505013605 58 282 3.0 5.0 0.00 0.00 0.00 75 1005.8
20260505012105 58 284 3.0 9.0 0.00 0.00 0.00 70 1006.1
20260505011606 59 269 3.0 8.0 0.00 0.00 0.00 70 1005.9
20260505011105 59 269 3.0 8.0 0.00 0.00 0.00 69 1006.0
20260505010605 59 244 3.0 7.0 0.00 0.00 0.00 68 1005.9
20260505010105 59 252 4.0 7.0 0.00 0.00 0.00 68 1005.8
20260505005605 59 267 3.0 6.0 0.00 0.00 0.00 68 1005.8
20260505005105 60 272 4.0 8.0 0.00 0.00 0.00 67 1005.8
20260505004605 60 257 5.0 9.0 0.00 0.00 0.00 67 1005.8
20260505004105 60 286 3.0 7.0 0.00 0.00 0.00 67 1005.8
20260505003605 61 239 4.0 10.0 0.00 0.00 0.00 66 1005.5
20260505003106 61 243 4.0 10.0 0.00 0.00 0.00 65 1005.4
20260505002605 61 258 3.0 7.0 0.00 0.00 0.00 64 1005.6
20260505002105 61 270 5.0 10.0 0.00 0.00 0.00 64 1005.6
20260505001107 61 260 3.0 7.0 0.00 0.00 0.00 62 1005.8
20260505000605 62 254 3.0 6.0 0.00 0.00 0.00 62 1005.6
20260504235606 62 255 3.0 8.0 0.00 0.00 0.00 62 1005.4
20260504235105 62 272 3.0 7.0 0.00 0.00 0.00 61 1005.4
20260504234105 62 277 3.0 8.0 0.00 0.00 0.00 60 1005.4
20260504233607 63 261 3.0 7.0 0.00 0.00 0.00 60 1005.4
20260504233105 63 267 3.0 8.0 0.00 0.00 0.00 60 1005.4
20260504232605 63 241 4.0 10.0 0.00 0.00 0.00 60 1005.2
20260504231605 63 243 4.0 8.0 0.00 0.00 0.00 60 1005.3
20260504231105 63 279 3.0 6.0 0.00 0.00 0.00 60 1005.1
20260504230605 63 287 3.0 9.0 0.00 0.00 0.00 59 1005.2
20260504230106 63 265 4.0 6.0 0.00 0.00 0.00 59 1005.3
20260504225605 63 271 3.0 8.0 0.00 0.00 0.00 59 1005.4
20260504223605 64 245 2.0 6.0 0.00 0.00 0.00 60 1005.4
20260504222605 64 235 2.0 5.0 0.00 0.00 0.00 61 1005.5
20260504222105 64 156 0.0 5.0 0.00 0.00 0.00 61 1005.8
20260504221605 64 237 1.0 5.0 0.00 0.00 0.00 61 1005.4
20260504221105 64 253 2.0 5.0 0.00 0.00 0.00 61 1005.4
20260504220605 64 180 1.0 3.0 0.00 0.00 0.00 60 1005.8
20260504215605 64 257 2.0 5.0 0.00 0.00 0.00 60 1005.7